Satellite-Ground Cal/Val Region Overpasses Predictions

Prediction of Satellite NPP Overpassing Cal/Val Region: PacNW

Region Location: (Latitude: 10.00, Longitude: 139.50) to (Latitude: 22.70, Longitude: 165.60).

Table of predicted overpasses for the next 14.0 days since TLE Epoch: 1/7/2024
Interval Starting Time Starting Location Ending Time Ending Location
1 01/07/2024 03:24:16 ( 10.05, 148.74) 01/07/2024 03:27:51 ( 22.68, 145.74)
2 01/07/2024 15:56:09 ( 22.68, 145.98) 01/07/2024 15:59:44 ( 10.06, 142.98)
3 01/08/2024 03:05:15 ( 10.04, 153.50) 01/08/2024 03:08:50 ( 22.66, 150.50)
4 01/08/2024 15:37:08 ( 22.69, 150.74) 01/08/2024 15:40:44 ( 10.01, 147.72)
5 01/09/2024 02:46:13 ( 10.03, 158.25) 01/09/2024 02:49:48 ( 22.65, 155.25)
6 01/09/2024 15:18:07 ( 22.64, 155.48) 01/09/2024 15:21:42 ( 10.02, 152.48)
7 01/10/2024 02:27:12 ( 10.02, 163.01) 01/10/2024 02:30:48 ( 22.70, 160.00)
8 01/10/2024 14:59:06 ( 22.66, 160.24) 01/10/2024 15:02:41 ( 10.04, 157.24)
9 01/11/2024 02:10:48 ( 19.29, 165.59) 01/11/2024 02:11:46 ( 22.69, 164.75)
10 01/11/2024 03:49:40 ( 10.01, 142.39) 01/11/2024 03:53:07 ( 22.17, 139.51)
11 01/11/2024 14:40:04 ( 22.67, 164.99) 01/11/2024 14:43:39 ( 10.05, 161.99)
12 01/11/2024 16:21:34 ( 22.66, 139.62) 01/11/2024 16:21:42 ( 22.19, 139.50)
13 01/12/2024 03:30:39 ( 10.00, 147.15) 01/12/2024 03:34:15 ( 22.68, 144.14)
14 01/12/2024 16:02:33 ( 22.67, 144.38) 01/12/2024 16:06:08 ( 10.05, 141.37)
15 01/13/2024 03:11:38 ( 10.05, 151.89) 01/13/2024 03:15:13 ( 22.68, 148.89)
16 01/13/2024 15:43:31 ( 22.68, 149.13) 01/13/2024 15:47:07 ( 10.00, 146.12)
17 01/14/2024 02:52:37 ( 10.05, 156.65) 01/14/2024 02:56:12 ( 22.67, 153.65)
18 01/14/2024 15:24:30 ( 22.69, 153.89) 01/14/2024 15:28:06 ( 10.01, 150.88)
19 01/15/2024 02:33:35 ( 10.04, 161.41) 01/15/2024 02:37:10 ( 22.66, 158.41)
20 01/15/2024 15:05:28 ( 22.69, 158.65) 01/15/2024 15:09:04 ( 10.02, 155.63)
21 01/16/2024 02:15:16 ( 12.50, 165.60) 01/16/2024 02:18:09 ( 22.66, 163.16)
22 01/16/2024 03:56:04 ( 10.04, 140.79) 01/16/2024 03:57:38 ( 15.56, 139.51)
23 01/16/2024 14:46:27 ( 22.70, 163.40) 01/16/2024 14:50:03 ( 10.02, 160.39)
24 01/17/2024 03:37:03 ( 10.04, 145.55) 01/17/2024 03:40:38 ( 22.66, 142.54)
25 01/17/2024 14:30:28 ( 11.96, 165.59) 01/17/2024 14:31:01 ( 10.03, 165.14)
26 01/17/2024 16:08:55 ( 22.70, 142.78) 01/17/2024 16:12:31 ( 10.02, 139.77)
27 01/18/2024 03:18:01 ( 10.03, 150.30) 01/18/2024 03:21:36 ( 22.66, 147.30)
28 01/18/2024 15:49:55 ( 22.64, 147.53) 01/18/2024 15:53:30 ( 10.02, 144.53)
29 01/19/2024 02:59:00 ( 10.03, 155.06) 01/19/2024 03:02:35 ( 22.65, 152.06)
30 01/19/2024 15:30:53 ( 22.65, 152.28) 01/19/2024 15:34:28 ( 10.03, 149.28)
31 01/20/2024 02:39:58 ( 10.03, 159.81) 01/20/2024 02:43:33 ( 22.65, 156.81)
32 01/20/2024 15:11:52 ( 22.65, 157.04) 01/20/2024 15:15:27 ( 10.03, 154.04)
